Other Public Products
Issued by NWS Grand Forks, ND

Home | Current Version | Previous Version | Text Only | Print | Product List | Glossary Off
Versions: 1 2 3 4 5 6 7 8 9 10 11 12 13 14 15 16 17 18 19 20 21 22 23 24 25 26 27 28 29 30 31 32 33 34 35 36 37 38 39 40 41 42 43 44 45 46 47 48 49 50

555
FPUS83 KFGF 270010
OPUFGF
PRAIRIE TO PINES WEATHER ROUNDUP
NATIONAL WEATHER SERVICE EASTERN NORTH DAKOTA/GRAND FORKS ND
700 PM CDT FRI MAY 26 2017

 **SATELLITE DATA USED TO AUGMENT SKY COVER AT AUTOMATED STATIONS**
 *****  WEATHER ACROSS EASTERN NORTH DAKOTA  *****

CITY           SKY/WX    TMP DP  RH WIND       PRES   REMARKS
GRAND FORKS    FAIR      69  47  45 W14       29.71R
6HR MIN TEMP:  66; 6HR MAX TEMP:  71;

GRAND FORKS AF PTSUNNY   66  46  47 W10       29.72S
GRAND CITY NWS NOT AVBL
BUXTON         NOT AVBL
DEVILS LAKE    PTSUNNY   63  42  46 W15       29.75R
6HR MIN TEMP:  59; 6HR MAX TEMP:  65;

FARGO          FAIR      69  43  38 W15       29.75R
6HR MIN TEMP:  68; 6HR MAX TEMP:  72;

WAHPETON ARPT  FAIR      66  39  37 W16       29.77R
$$

 *****  WEATHER ACROSS CENTRAL AND WESTERN NORTH DAKOTA  *****

CITY           SKY/WX    TMP DP  RH WIND       PRES   REMARKS
JAMESTOWN      FAIR      64  43  46 W17G23    29.77S
6HR MIN TEMP:  58; 6HR MAX TEMP:  66;

BISMARCK       PTSUNNY   69  38  32 NW10      29.80S
6HR MIN TEMP:  63; 6HR MAX TEMP:  70;

MINOT          FAIR      68  36  30 W17       29.73S
6HR MIN TEMP:  59; 6HR MAX TEMP:  69;

MINOT AFB      FAIR      65  35  32 NW16      29.71S
6HR MIN TEMP:  57; 6HR MAX TEMP:  68;

GARRISON         N/A     67  34  29 W22       29.76S
6HR MIN TEMP:  58; 6HR MAX TEMP:  68;

WILLISTON      FAIR      69  32  25 W17G25    29.78R
6HR MIN TEMP:  63; 6HR MAX TEMP:  72;

DICKINSON      FAIR      65  30  27 W16       29.81R
6HR MIN TEMP:  60; 6HR MAX TEMP:  68;

HETTINGER      FAIR      65  33  30 NW14      29.86R
6HR MIN TEMP:  61; 6HR MAX TEMP:  68;

$$

 *****  OTHER OBSERVATIONS NORTHEAST NORTH DAKOTA  *****

CITY           SKY/WX    TMP DP  RH WIND       PRES   REMARKS
WALHALLA       NOT AVBL
LANGDON        CLOUDY    63  43  48 W18       29.71R
CAVALIER       FAIR      68  43  40 W16G23    29.67S
GRAFTON        MOCLDY    66  46  48 W16G28    29.71R
CANDO          NOT AVBL
FORT TOTTEN      N/A     62  44  51 NW5       29.95S
ROLLA          FAIR      63  41  45 W15       29.71S
RUGBY          NOT AVBL
 ***** THE ABOVE OBSERVATIONS ARE NON NWS ARE NOT QUALITY
        CONTROLLED AND MAY MIS-REPORT RAIN FOR SNOW...
$$

 *****  OTHER OBSERVATIONS SOUTHEAST NORTH DAKOTA *****

CITY           SKY/WX    TMP DP  RH WIND       PRES   REMARKS
COOPERSTOWN    MOCLDY    64  41  42 W16       29.77R
VALLEY CITY    CLOUDY    64  43  45 W15       29.79R
OAKES          NOT AVBL
GWINNER        CLEAR     66  43  42 MISG      29.79S
SHEYENNE NWR     N/A     68  43  40 NW12      29.95S
BUFFALO        NOT AVBL
WYNDMERE         N/A     68  43  40 W14         N/A
 ***** THE ABOVE OBSERVATIONS ARE NON NWS ARE NOT QUALITY
       CONTROLLED AND MAY MIS-REPORT RAIN FOR SNOW...
$$

  *****  WEATHER ACROSS NORTHERN MINNESOTA  *****

CITY           SKY/WX    TMP DP  RH WIND       PRES   REMARKS
FLAG ISLAND    PTSUNNY   66  45  45 SW14      29.63R
WARROAD        FAIR      66  46  48 W14G21    29.67R
ROSEAU         FAIR      68  46  45 SW15      29.67R
HALLOCK        CLOUDY    66  45  45 W16       29.67S
THF RVR FALLS  FAIR      66  43  43 W15       29.72R
6HR MIN TEMP:  66; 6HR MAX TEMP:  70;

HALSTAD        NOT AVBL
FOSSTON        FAIR      66  43  42 W14G20    29.74R
BAUDETTE       CLOUDY    68  44  42 W14G21    29.66R HAZE
6HR MIN TEMP:  68; 6HR MAX TEMP:  75;

WASKISH        FAIR      66  52  59 W13       29.69R
CROOKSTON      FAIR      68  43  40 W17G23    29.72S
$$
  *****  WEATHER ACROSS CENTRAL AND WEST MINNESOTA  *****

CITY           SKY/WX    TMP DP  RH WIND       PRES   REMARKS
BEMIDJI        FAIR      68  44  40 W14       29.71R
PARK RAPIDS    LGT RAIN  70  41  34 W17G24    29.73R
6HR MIN TEMP:  69; 6HR MAX TEMP:  74; 6HR PCP: TRACE;

WADENA         FAIR      68  45  42 W13       29.74S
DETROIT LAKES  FAIR      66  41  39 W15G23    29.76S
MOORHEAD       FAIR      68  39  34 MISG      29.76R
FERGUS FALLS   FAIR      66  45  45 NW15G21   29.74S
ELBOW LAKE     FAIR      68  44  41 NW13G21   29.77S
6HR MIN TEMP:  67; 6HR MAX TEMP:  71;

MORRIS MN      FAIR      72  45  37 W14G21    29.77S
STAPLES        FAIR      70  41  35 W9        29.74R
WHEATON        FAIR      70  39  32 W14G21    29.79R
$$
  *****  WEATHER ELSEWHERE ACROSS MINNESOTA  *****

CITY           SKY/WX    TMP DP  RH WIND       PRES   REMARKS
DULUTH         FAIR      63  52  67 E8        29.71S
6HR MIN TEMP:  61; 6HR MAX TEMP:  69;

INTRNTL FALLS  FAIR      71  41  33 W10       29.66R
6HR MIN TEMP:  66; 6HR MAX TEMP:  76; 6HR PCP:  0.02;

ELY            PTSUNNY   61  55  82 SE8       29.71R
CLOQUET        FAIR      63  52  67 E7        29.70R
BRAINERD       FAIR      71  44  37 SW13      29.73R
6HR MIN TEMP:  70; 6HR MAX TEMP:  75;

HIBBING        FAIR      72  46  39 W9        29.68R
6HR MIN TEMP:  63; 6HR MAX TEMP:  75; 6HR PCP:  0.01;

ALEXANDRIA     FAIR      69  43  38 W13       29.77S
6HR MIN TEMP:  68; 6HR MAX TEMP:  72;

SAINT CLOUD    FAIR      72  48  42 W10       29.74R
6HR MIN TEMP:  71; 6HR MAX TEMP:  76;

MINNEAPOLIS    FAIR      78  49  35 W10       29.72R
6HR MIN TEMP:  72; 6HR MAX TEMP:  80;

$$

  *****  WEATHER ACROSS SOUTH DAKOTA  *****

CITY           SKY/WX    TMP DP  RH WIND       PRES   REMARKS
SIOUX FALLS    FAIR      72  43  35 NW15G23   29.82S
6HR MIN TEMP:  71; 6HR MAX TEMP:  74;

BROOKINGS      FAIR      69  42  37 W12       29.81S
WATERTOWN      FAIR      66  42  41 NW10      29.80S
6HR MIN TEMP:  66; 6HR MAX TEMP:  71;

HURON          FAIR      71  41  33 NW13      29.81R
6HR MIN TEMP:  68; 6HR MAX TEMP:  75;

SISSETON         N/A     70  44  39 NW18      29.78R
ABERDEEN       FAIR      68  39  34 NW9       29.80S
6HR MIN TEMP:  66; 6HR MAX TEMP:  71;

MITCHELL       FAIR      75  38  26 NW12      29.82S
PIERRE         FAIR      70  36  28 NW12      29.83R
6HR MIN TEMP:  67; 6HR MAX TEMP:  73;

MOBRIDGE       FAIR      72  37  28 NW12      29.79R
RAPID CITY     CLOUDY    60  38  43 S8        29.93R
6HR MIN TEMP:  60; 6HR MAX TEMP:  67;

$$

  *****  SOME WEATHER IN NEARBY STATES *****

CITY           SKY/WX    TMP DP  RH WIND       PRES   REMARKS
GLASGOW MT     LGT RAIN  57  41  55 NW26      29.86R
6HR MIN TEMP:  57; 6HR MAX TEMP:  71; 6HR PCP: TRACE;

GREAT FALLS MT CLOUDY    61  33  35 SE5       29.91R
6HR MIN TEMP:  56; 6HR MAX TEMP:  65;

CHEYENNE WY    LGT RAIN  58  47  66 SE10      29.87S
6HR MIN TEMP:  53; 6HR MAX TEMP:  60; 6HR PCP:  0.02;

SCOTTSBLUFF NE FAIR      59  48  67 NE14      29.86F
6HR MIN TEMP:  58; 6HR MAX TEMP:  65; 6HR PCP:  0.04;

OMAHA NE       FAIR      81  49  32 N5        29.80S
6HR MIN TEMP:  75; 6HR MAX TEMP:  81;

DES MOINES IA  FAIR      80  56  43 CALM      29.77R
6HR MIN TEMP:  75; 6HR MAX TEMP:  83;

DAVENPORT IA   CLOUDY    65  59  81 NE12      29.81R
6HR MIN TEMP:  61; 6HR MAX TEMP:  68; 6HR PCP:  0.04;

CHICAGO IL     LGT RAIN  56  53  90 NE13      29.82R FOG
6HR MIN TEMP:  56; 6HR MAX TEMP:  69; 6HR PCP:  0.45;

EAU CLAIRE WI  FAIR      73  55  53 S12       29.75S
6HR MIN TEMP:  71; 6HR MAX TEMP:  74;

LA CROSSE WI   FAIR      72  58  61 S8        29.79S
6HR MIN TEMP:  69; 6HR MAX TEMP:  74;

$$

  *****  SOME NATIONAL WEATHER *****

CITY           SKY/WX    TMP DP  RH WIND       PRES   REMARKS
LA GUARDIA NY  MOCLDY    71  53  52 NW14      29.68R



USA.gov is the U.S. government's official web portal to all federal, state and local government web resources and services.